CAPE
0 0 0 0 40 414 530 434 453 474 570 411 577 583 378 210 229 236 192 391 231 789 697 752 612 313 370 357 442 651 556 573 541
0 0 0 36 123 230 308 547 528 558 492 570 534 485 394 354 271 169 184 247 343 547 817 618 627 475 335 258 357 533 579 469 400
2 19 32 29 28 71 149 229 571 545 535 523 475 420 383 374 280 196 164 139 204 453 569 794 704 643 455 305 352 312 575 448 317
10 6 18 34 77 110 68 190 390 504 488 452 429 390 466 574 428 308 241 159 300 460 390 313 510 745 479 333 267 243 484 456 279
2 0 2 6 10 41 30 82 154 250 235 261 292 301 284 407 365 330 364 276 403 446 394 217 219 163 344 225 210 184 335 400 291
1 0 1 0 0 2 16 7 10 32 24 106 128 234 311 290 278 283 186 320 393 259 236 234 143 77 134 102 179 179 164 199 229
0 0 0 0 0 0 0 0 1 15 38 94 56 110 185 237 239 150 104 348 508 396 222 156 143 130 72 89 105 144 205 85 118
0 0 0 0 0 0 0 0 0 0 0 19 44 52 64 117 161 97 51 265 496 379 339 270 201 189 198 192 64 41 94 105 24
0 0 0 0 0 0 0 0 0 0 0 0 0 0 14 105 155 113 78 195 336 359 366 235 171 212 212 183 143 21 8 64 4
0 0 0 0 0 0 0 0 0 0 0 0 0 0 1 2 18 61 13 54 153 327 297 337 329 232 348 30 0 4 0 9 30
0 0 0 0 0 0 0 0 0 0 0 0 2 2 3 2 2 3 3 6 3 130 237 232 303 246 215 106 13 0 46 21 24
0 0 0 0 0 0 0 0 0 0 0 0 0 0 0 0 1 2 4 3 5 6 6 88 152 143 152 116 23 3 0 0 3
0 0 0 0 0 0 0 0 0 0 0 1 1 0 0 0 0 0 1 3 4 5 9 7 6 27 9 16 8 1 3 6 0
0 0 0 0 0 0 0 0 0 0 0 0 0 0 0 0 0 0 0 1 0 1 4 7 7 6 6 7 72 116 116 74 15
0 0 0 0 0 0 0 0 0 0 0 0 0 0 0 0 0 0 0 0 0 0 0 0 3 6 6 6 6 14 59 101 103
0 0 0 0 0 0 0 0 0 0 0 0 0 0 0 0 0 0 0 0 0 0 0 0 0 1 4 5 4 7 37 124 92
0 0 0 0 0 0 0 0 0 0 0 0 0 0 0 0 0 0 0 0 0 0 0 0 0 0 0 3 3 3 7 37 50
0 0 0 0 0 0 0 0 0 0 0 0 0 0 0 0 0 0 0 0 0 0 0 0 0 0 0 0 0 2 2 14 26
0 0 0 0 0 0 0 0 0 0 0 0 0 0 0 0 0 0 0 0 0 0 0 0 0 0 0 0 1 1 1 19 12
0 0 0 0 0 0 0 0 0 0 0 0 0 0 0 0 0 0 0 0 0 0 0 0 0 0 0 0 0 2 4 9 16
CIN
0 0 0 0 -120 -1 0 -16 -13 -11 -2 -5 0 0 -5 -64 -42 -35 -34 -4 -21 0 -1 0 -2 -12 -11 -11 -6 -2 -2 -1 0
0 0 0 -126 -50 -16 -9 0 -2 -2 -10 -3 -2 -3 -8 -15 -25 -63 -55 -17 -11 -4 0 -4 -3 -7 -11 -13 -8 -3 -1 0 -4
-1 -30 -82 -83 -174 -92 -33 -19 0 -2 -2 -11 -21 -22 -26 -17 -33 -50 -49 -72 -23 -5 -5 0 -2 -2 -5 -13 -8 -8 -1 -4 -8
-3 -4 0 -175 -118 -63 -78 -21 0 0 -5 -24 -32 -33 -11 0 -14 -34 -33 -57 -16 -5 -6 -16 -7 0 -16 -4 -12 -13 -3 -1 -9
-1 -4 -5 -4 -4 -157 -118 -70 -21 -5 -23 -55 -83 -80 -72 -37 -49 -52 -32 -37 -8 -7 -4 -12 -28 -37 -13 -8 -8 -17 -4 -1 -3
0 0 0 0 0 -3 -10 -257 -101 -129 -156 -65 -77 -85 -58 -63 -77 -65 -92 -48 -17 -15 -17 -11 -22 -38 -25 -12 -7 -5 -13 -7 -4
0 0 0 0 0 0 0 0 0 -246 -125 -57 -106 -87 -81 -80 -77 -99 -117 -41 -19 -15 -23 -20 -21 -26 -32 -30 -18 -11 0 -11 -2
0 0 0 0 0 0 0 0 0 0 -27 -190 -110 -107 -126 -108 -101 -140 -149 -47 -16 -28 -20 -22 -22 -27 -8 -16 -26 -19 -5 -8 -11
0 0 0 0 0 0 0 0 0 0 0 0 0 0 -146 -65 -71 -120 -138 -70 -12 -16 -20 -34 -22 -24 -8 -1 -4 0 -26 -5 -12
0 0 0 0 0 0 0 0 0 0 0 0 0 0 0 -1 -133 -160 -147 -137 -51 -5 -19 -5 -6 -17 -1 -57 0 -74 0 -8 -1
0 0 0 0 0 0 0 0 0 0 0 0 0 0 0 0 0 0 0 0 0 -10 -1 -2 0 0 -1 -24 -65 -32 -64 -34 -6
0 0 0 0 0 0 0 0 0 0 0 0 0 0 0 0 0 0 0 0 0 0 -3 -7 0 0 0 0 -13 -91 0 0 -33
0 0 0 0 0 0 0 0 0 0 0 0 0 0 0 0 0 0 0 0 0 0 0 0 0 -3 -16 -15 -51 -13 -126 -86 0
0 0 0 0 0 0 0 0 0 0 0 0 0 0 0 0 0 0 0 0 0 0 0 0 0 0 0 -1 -2 -17 0 -6 -59
0 0 0 0 0 0 0 0 0 0 0 0 0 0 0 0 0 0 0 0 0 0 0 0 0 0 0 0 0 -66 -9 -12 -13
0 0 0 0 0 0 0 0 0 0 0 0 0 0 0 0 0 0 0 0 0 0 0 0 0 0 0 0 0 0 -77 -19 -21
0 0 0 0 0 0 0 0 0 0 0 0 0 0 0 0 0 0 0 0 0 0 0 0 0 0 0 0 0 0 0 -78 -10
0 0 0 0 0 0 0 0 0 0 0 0 0 0 0 0 0 0 0 0 0 0 0 0 0 0 0 0 0 0 0 0 0
0 0 0 0 0 0 0 0 0 0 0 0 0 0 0 0 0 0 0 0 0 0 0 0 0 0 0 0 0 0 0 -2 0
0 0 0 0 0 0 0 0 0 0 0 0 0 0 0 0 0 0 0 0 0 0 0 0 0 0 0 0 0 0 0 0 0
Wind_Speed
14 15 17 18 18 17 17 17 18 18 16 17 18 18 19 19 19 19 18 17 17 15 16 16 15 14 10 8 5 3 6 5 5
15 13 11 13 14 15 17 18 17 17 16 16 17 18 19 19 20 20 19 18 19 18 17 17 17 16 15 12 9 6 3 8 7
14 17 14 14 14 14 15 18 18 18 18 18 17 17 17 18 20 20 20 20 22 23 22 18 16 17 16 14 11 9 6 4 10
17 17 17 17 18 17 16 16 18 17 17 17 17 17 17 17 18 20 20 20 23 25 24 19 18 19 20 16 13 12 12 10 10
17 16 18 19 19 19 18 18 19 17 17 17 17 17 18 18 18 19 20 22 24 23 21 22 21 22 23 19 17 14 16 14 14
15 16 17 17 18 18 19 19 18 17 17 17 17 16 17 17 18 18 22 22 24 24 24 24 24 24 26 24 25 18 16 19 17
17 17 18 18 18 18 19 19 18 18 17 18 18 17 17 17 18 18 21 22 24 25 26 26 25 25 20 19 21 22 21 24 19
18 18 18 19 19 18 18 18 18 18 18 18 19 20 20 20 19 20 22 22 23 24 24 25 24 21 20 19 21 23 25 29 24
19 19 19 19 19 18 18 18 18 18 18 18 19 20 20 20 20 21 22 22 22 22 22 24 24 22 21 20 20 22 26 26 21
19 20 20 20 19 19 19 18 18 18 18 18 19 19 20 21 20 20 22 22 22 22 22 22 20 20 15 20 23 22 24 31 24
19 19 20 21 21 19 19 19 18 18 17 17 18 18 19 20 20 20 22 22 22 23 23 23 22 21 20 20 21 20 26 25 27
18 19 20 21 21 20 19 19 18 18 18 18 18 18 19 20 21 21 22 22 22 23 24 23 23 22 20 19 23 26 23 27 25
17 19 19 20 20 21 20 19 19 18 18 18 18 18 18 19 19 20 21 22 22 23 23 23 22 23 26 28 28 28 27 25 27
17 18 19 19 19 20 20 19 19 19 18 17 17 18 18 18 19 20 21 22 22 22 23 23 23 23 24 25 25 25 26 31 30
16 17 18 19 19 19 19 19 19 18 18 17 17 18 18 19 19 20 20 21 22 22 23 23 23 24 25 26 27 27 28 33 31
15 16 18 19 20 20 18 18 19 20 19 18 18 18 18 19 20 21 21 22 22 22 23 23 23 23 24 25 27 28 27 29 30
14 16 17 18 19 21 21 20 18 19 22 21 21 22 21 20 21 21 21 22 22 23 23 23 24 24 23 24 25 25 25 24 25
14 15 16 17 19 20 21 21 20 19 21 22 22 23 24 24 22 22 23 23 22 23 23 23 24 24 24 24 25 26 24 22 22
13 14 16 17 18 19 20 21 21 20 21 21 22 22 23 25 26 23 23 24 24 23 23 23 24 24 24 24 24 25 24 23 22
14 15 16 17 18 19 20 21 22 22 22 22 22 22 22 23 25 27 26 25 25 24 23 23 23 23 24 24 24 25 23 23 22
Wind_Direction
352 345 337 332 329 335 336 336 332 333 337 332 326 322 320 320 312 311 314 309 306 308 300 296 295 293 294 296 303 297 291 296 298
354 8 12 1 352 341 333 331 333 333 335 336 332 325 321 319 315 311 307 306 298 300 299 297 293 291 289 287 284 287 284 278 282
13 353 2 358 353 346 339 329 326 327 326 326 330 331 329 322 317 312 309 304 293 288 291 295 296 290 288 287 281 273 269 276 273
348 344 349 347 344 342 335 335 329 327 326 325 326 329 331 328 322 315 310 306 297 286 286 292 294 288 285 286 281 271 268 272 272
359 360 349 336 330 332 334 331 323 327 328 325 322 323 325 326 324 321 313 304 297 297 294 289 289 287 282 289 279 273 269 268 268
21 15 14 8 348 334 328 324 325 323 322 322 324 323 322 325 326 324 313 306 297 297 294 289 289 290 282 281 276 277 271 268 265
25 17 13 10 8 351 330 325 324 325 322 317 316 320 319 321 323 324 321 313 303 298 294 293 290 286 291 290 291 282 279 273 265
18 15 13 12 10 8 345 333 331 326 326 322 317 312 311 311 314 318 319 318 311 305 302 299 295 292 292 293 292 287 283 275 281
18 18 17 17 19 17 355 340 335 333 331 328 323 318 314 313 310 312 316 320 318 313 311 304 301 294 293 291 300 306 288 281 282
20 20 21 20 22 19 358 344 342 339 336 329 326 322 317 316 313 315 317 317 318 317 310 311 312 308 302 296 294 315 309 297 285
19 19 21 22 26 25 1 353 348 344 343 339 334 329 322 319 320 318 316 322 321 317 312 309 306 308 306 300 299 313 302 307 299
22 23 25 27 30 27 3 0 356 353 350 349 338 333 328 323 322 322 320 319 323 325 323 315 307 306 309 314 311 300 308 300 302
19 22 24 27 27 23 6 2 359 353 352 354 347 339 336 331 327 328 330 328 326 322 322 324 324 313 301 302 305 299 305 296 300
16 18 20 24 26 22 10 360 357 356 352 355 354 344 341 340 337 336 336 334 331 327 323 320 320 321 321 320 318 314 305 287 296
11 13 17 19 18 17 11 4 356 356 353 350 352 352 345 341 338 336 339 339 336 332 330 328 322 322 320 321 319 319 315 298 296
4 5 9 12 11 8 5 3 355 347 338 332 331 338 344 344 340 337 336 333 335 335 332 331 331 326 325 325 326 323 324 326 299
354 357 360 5 5 2 360 357 353 345 337 325 318 314 320 328 334 334 335 335 334 334 335 331 328 327 331 330 330 329 332 336 344
349 350 353 358 358 356 355 352 347 344 340 333 319 312 310 311 321 326 329 331 332 332 330 330 329 328 328 328 324 327 327 331 338
338 341 345 349 350 350 349 348 344 341 336 332 329 324 315 310 308 315 318 322 326 329 330 327 326 325 325 327 327 327 325 329 327
328 331 335 338 342 342 341 344 339 338 335 332 327 324 322 318 312 307 310 313 317 321 325 326 327 326 325 322 322 322 322 324 327